Tracking 29892 objects as of 21-Nov-2024
HD Live streaming from Space Station
objects crossing your sky now

SL-16 DEB

Track SL-16 DEB now!
10-day predictions


NORAD ID: 22353
Int'l Code: 1992-093AS
Perigee: 781.6 km
Apogee: 943.5 km
Inclination: 71.0 °
Period: 102.0 minutes
Semi major axis: 7233 km
RCS: 0.0712 m2 (small)
Launch date: December 25, 1992
Source: Commonwealth of Independent States (former USSR) (CIS)
Launch site: TYURATAM MISSILE AND SPACE COMPLEX (TTMTR)

Note: This is SATELLITE DEBRIS
Your satellite tracking list
Your tracking list is empty




NASA's NSSDC Master Catalog

Two Line Element Set (TLE):
1 22353U 92093AS  24326.10142852  .00002043  00000-0  10928-2 0  9999
2 22353  70.9678 354.0637 0111901  20.7334  10.9674 14.11168142631077
Source of the keplerian elements: AFSPC